Location: Drocourt
(49.0571°N, 1.7669°E)
Time: 00:36:21
(UTC+00:00)

Cosmos 2360 Rocket - Pass Details

Date: 09 February 2023
Orbit: 832 x 846 km, 71.0° (Epoch: 21 March)

Event Time Altitude Azimuth Distance (km) Brightness Sun altitude
Rises 18:12:08 0° 222° (SW) 3,380 6.2 -11.8°
Reaches altitude 10° 18:14:37 10° 227° (SW) 2,451 5.5 -12.2°
Maximum altitude 18:20:07 54° 304° (NW) 1,018 2.9 -13.1°
Drops below altitude 10° 18:25:41 10° 22° (NNE) 2,475 4.4 -14.0°
Sets 18:28:13 0° 27° (NNE) 3,415 5.0 -14.4°
Enters shadow 18:28:14 - 27° (NNE) 3,422 5.0 -14.4°
